This is the latest recevied weather packets stored in our database for station/object E22ZMG-1. If no packets are shown the sender has not sent any weather packets the latest 10 day(s).
| Time | Temp. | Humidity | Pressure | Rain* | Wind** | Luminosity | Snow |
|---|---|---|---|---|---|---|---|
| 1778013188 | 31.11° C | 63% | 974 hPa | - | - | 0 W/m² | - |
| 1778012563 | 31.67° C | 61% | 974 hPa | - | - | 0 W/m² | - |
| 1778011939 | 31.67° C | 60% | 974 hPa | - | - | 0 W/m² | - |
| 1778011313 | 31.11° C | 61% | 974 hPa | - | - | 0 W/m² | - |
| 1778010688 | 32.78° C | 57% | 974 hPa | - | - | 0 W/m² | - |
| 1778010063 | 32.78° C | 57% | 974 hPa | - | - | 0 W/m² | - |
| 1778009439 | 32.78° C | 58% | 974 hPa | - | - | 0 W/m² | - |
| 1778008813 | 33.33° C | 56% | 974 hPa | - | - | 0 W/m² | - |
| 1778008186 | 32.78° C | 58% | 974 hPa | - | - | 0 W/m² | - |
| 1778007561 | 32.78° C | 57% | 974 hPa | - | - | 0 W/m² | - |
| 1778006933 | 33.33° C | 56% | 974 hPa | - | - | 0 W/m² | - |
| 1778006056 | 32.22° C | 58% | 974 hPa | - | - | 0 W/m² | - |
| 1778005432 | 33.33° C | 56% | 974 hPa | - | - | 0 W/m² | - |
| 1778004805 | 33.33° C | 56% | 975 hPa | - | - | 0 W/m² | - |
| 1778004180 | 33.89° C | 54% | 975 hPa | - | - | 0 W/m² | - |
| 1778003555 | 33.33° C | 55% | 975 hPa | - | - | 0 W/m² | - |
| 1778002929 | 33.33° C | 54% | 975 hPa | - | - | 0 W/m² | - |
| 1778002303 | 33.89° C | 52% | 975 hPa | - | - | 0 W/m² | - |
| 1778001679 | 33.89° C | 52% | 975 hPa | - | - | 0 W/m² | - |
| 1778001053 | 33.89° C | 51% | 975 hPa | - | - | 0 W/m² | - |
| 1778000426 | 33.33° C | 53% | 975 hPa | - | - | 0 W/m² | - |
| 1777999591 | 33.89° C | 51% | 975 hPa | - | - | 0 W/m² | - |
| 1777998966 | 35° C | 49% | 975 hPa | - | - | 0 W/m² | - |
| 1777998341 | 35° C | 48% | 975 hPa | - | - | 0 W/m² | - |
| 1777997716 | 35.56° C | 47% | 976 hPa | - | - | 0 W/m² | - |
* Rain since midnight (hover to see other rain measurements)
** Current wind speed in m/s (hover to see current wind gust speed)